N1738 MYNN-MDPC

Flight info

Callsign N1738
Flight time N/A
Altitude 29000
Route BOSAR DCT RUMFO Y441 JUELE DCT PTA UW28 PETRI/N0273F190 W28 BEREL BEREL2B
Aircraft SF50/L-SDGRWY/L

Departure

Time 2026-05-07 22:54
Airport Lynden Pindling International Airport (MYNN)

Arrival

Time N/A
Airport Punta Cana International Airport (MDPC)
Time Latitude Longitude Altitude Speed Heading
2026-05-07 22:23 25.04729 -77.46550 6 ft 0 kts 358°
2026-05-07 22:45 25.04748 -77.46575 6 ft 15 kts 194°
2026-05-07 22:45 25.04724 -77.46661 6 ft 15 kts 323°
2026-05-07 22:45 25.04679 -77.46738 6 ft 18 kts 182°
2026-05-07 22:46 25.04589 -77.46652 6 ft 7 kts 138°
2026-05-07 22:46 25.04588 -77.46651 6 ft 0 kts 138°
2026-05-07 22:46 25.04575 -77.46638 6 ft 18 kts 138°
2026-05-07 22:46 25.04445 -77.46496 6 ft 13 kts 134°
2026-05-07 22:47 25.04356 -77.46390 5 ft 19 kts 131°
2026-05-07 22:47 25.04264 -77.46283 5 ft 20 kts 134°
2026-05-07 22:47 25.04150 -77.46156 5 ft 25 kts 136°
2026-05-07 22:47 25.04029 -77.46022 5 ft 23 kts 133°
2026-05-07 22:48 25.03966 -77.45952 6 ft 7 kts 136°
2026-05-07 22:48 25.03931 -77.45915 6 ft 11 kts 136°
2026-05-07 22:48 25.03826 -77.45799 6 ft 37 kts 133°
2026-05-07 22:48 25.03706 -77.45666 6 ft 15 kts 135°
2026-05-07 22:49 25.03627 -77.45584 5 ft 25 kts 141°
2026-05-07 22:49 25.03472 -77.45406 5 ft 39 kts 130°
2026-05-07 22:49 25.03306 -77.45210 4 ft 23 kts 136°
2026-05-07 22:49 25.03257 -77.45169 4 ft 3 kts 159°
2026-05-07 22:50 25.03252 -77.45168 4 ft 0 kts 164°
2026-05-07 22:50 25.03234 -77.45167 4 ft 0 kts 189°
2026-05-07 22:51 25.03159 -77.45182 5 ft 14 kts 191°
2026-05-07 22:52 25.03096 -77.45224 5 ft 9 kts 271°
2026-05-07 22:52 25.03097 -77.45234 5 ft 0 kts 300°
2026-05-07 22:52 25.03107 -77.45248 5 ft 0 kts 309°
2026-05-07 22:53 25.03108 -77.45248 5 ft 1 kts 309°
2026-05-07 22:53 25.03203 -77.45357 4 ft 52 kts 314°
2026-05-07 22:53 25.03635 -77.45838 20 ft 121 kts 314°
2026-05-07 22:54 25.04287 -77.46553 537 ft 134 kts 316°
2026-05-07 22:54 25.04981 -77.47259 1276 ft 150 kts 317°
2026-05-07 22:54 25.05779 -77.48074 2044 ft 161 kts 317°
2026-05-07 22:54 25.06628 -77.48906 2896 ft 166 kts 318°
2026-05-07 22:55 25.07507 -77.49766 3712 ft 177 kts 318°
2026-05-07 22:55 25.08506 -77.50653 4436 ft 187 kts 322°
2026-05-07 22:55 25.09570 -77.51521 5249 ft 189 kts 323°
2026-05-07 22:55 25.10643 -77.52335 6141 ft 174 kts 327°
2026-05-07 22:56 25.11593 -77.53047 6957 ft 157 kts 324°
2026-05-07 22:56 25.12571 -77.53816 7153 ft 186 kts 323°
2026-05-07 22:56 25.13652 -77.54730 7396 ft 196 kts 320°
2026-05-07 22:56 25.14667 -77.55668 7699 ft 191 kts 319°
2026-05-07 22:57 25.15675 -77.56666 7952 ft 188 kts 316°
2026-05-07 22:57 25.16644 -77.57669 8066 ft 197 kts 316°
2026-05-07 22:57 25.17661 -77.58703 8235 ft 199 kts 317°
2026-05-07 22:57 25.18699 -77.59738 8327 ft 204 kts 317°
2026-05-07 22:58 25.19724 -77.60748 7974 ft 204 kts 313°
2026-05-07 22:58 25.20727 -77.61908 8166 ft 203 kts 313°
2026-05-07 22:58 25.21738 -77.62930 8344 ft 181 kts 326°
2026-05-07 22:58 25.22869 -77.63637 8202 ft 201 kts 330°
2026-05-07 22:59 25.24140 -77.64377 8324 ft 203 kts 342°
2026-05-07 22:59 25.25515 -77.64309 8431 ft 208 kts 21°
2026-05-07 22:59 25.26611 -77.63296 8598 ft 206 kts 50°
2026-05-07 22:59 25.27478 -77.62073 9015 ft 204 kts 53°
2026-05-07 23:00 25.28343 -77.60786 9226 ft 211 kts 53°
2026-05-07 23:00 25.29224 -77.59446 9295 ft 225 kts 54°
2026-05-07 23:00 25.30123 -77.58042 9422 ft 231 kts 54°
2026-05-07 23:00 25.31101 -77.56522 9141 ft 245 kts 54°
2026-05-07 23:01 25.32046 -77.55049 8959 ft 223 kts 54°
2026-05-07 23:01 25.32910 -77.53712 8860 ft 202 kts 54°
2026-05-07 23:01 25.33602 -77.52568 8295 ft 119 kts 53°
2026-05-07 23:01 25.34401 -77.51133 6718 ft 233 kts 59°
2026-05-07 23:02 25.35159 -77.49746 7024 ft 191 kts 58°
2026-05-07 23:02 25.35813 -77.48600 7140 ft 173 kts 56°
2026-05-07 23:02 25.36500 -77.47530 7147 ft 171 kts 53°
2026-05-07 23:02 25.37237 -77.46432 7146 ft 183 kts 53°
2026-05-07 23:03 25.37738 -77.45672 7164 ft 185 kts 53°
2026-05-07 23:03 25.38492 -77.44514 7191 ft 186 kts 54°
2026-05-07 23:03 25.39239 -77.43347 7216 ft 186 kts 54°
2026-05-07 23:03 25.39977 -77.42173 7241 ft 186 kts 55°
2026-05-07 23:04 25.40710 -77.40994 7265 ft 186 kts 55°
2026-05-07 23:04 25.41437 -77.39810 7289 ft 186 kts 56°
2026-05-07 23:04 25.42156 -77.38622 7314 ft 186 kts 56°
2026-05-07 23:04 25.42878 -77.37416 7338 ft 195 kts 56°
2026-05-07 23:05 25.43677 -77.36072 7412 ft 223 kts 56°
2026-05-07 23:05 25.44540 -77.34609 7964 ft 223 kts 57°
2026-05-07 23:05 25.45373 -77.33188 8707 ft 217 kts 57°
2026-05-07 23:05 25.46177 -77.31797 9444 ft 212 kts 57°
2026-05-07 23:06 25.46958 -77.30428 10183 ft 208 kts 58°
2026-05-07 23:06 25.47715 -77.29077 10921 ft 204 kts 58°
2026-05-07 23:06 25.48445 -77.27750 11658 ft 199 kts 58°
2026-05-07 23:06 25.49147 -77.26450 12393 ft 194 kts 59°
2026-05-07 23:07 25.49823 -77.25183 13128 ft 188 kts 59°
2026-05-07 23:07 25.50470 -77.23955 13859 ft 182 kts 59°
2026-05-07 23:07 25.51088 -77.22768 14589 ft 174 kts 60°
2026-05-07 23:07 25.51266 -77.21520 15300 ft 165 kts 110°
2026-05-07 23:08 25.50688 -77.20408 15810 ft 171 kts 122°
2026-05-07 23:08 25.50060 -77.19256 16272 ft 177 kts 120°
2026-05-07 23:08 25.49764 -77.17839 16326 ft 203 kts 98°
2026-05-07 23:08 25.49559 -77.16253 16621 ft 215 kts 106°
2026-05-07 23:09 25.48886 -77.14726 16835 ft 228 kts 120°
2026-05-07 23:09 25.48026 -77.13204 17042 ft 238 kts 129°
2026-05-07 23:09 25.46731 -77.12034 17245 ft 244 kts 149°
2026-05-07 23:09 25.45300 -77.11036 17449 ft 249 kts 147°
2026-05-07 23:10 25.43898 -77.09879 17649 ft 253 kts 141°
2026-05-07 23:10 25.42537 -77.08629 17854 ft 255 kts 141°
2026-05-07 23:10 25.41168 -77.07417 18339 ft 244 kts 142°
2026-05-07 23:10 25.39879 -77.06302 19073 ft 228 kts 142°
2026-05-07 23:11 25.38673 -77.05251 19801 ft 214 kts 142°
2026-05-07 23:11 25.37538 -77.04262 20527 ft 201 kts 142°
2026-05-07 23:11 25.36477 -77.03336 21248 ft 188 kts 142°
2026-05-07 23:11 25.35489 -77.02476 21964 ft 173 kts 142°
2026-05-07 23:12 25.34587 -77.01690 22674 ft 156 kts 142°
2026-05-07 23:12 25.33783 -77.00992 23355 ft 137 kts 142°
2026-05-07 23:12 25.33097 -77.00396 23967 ft 115 kts 142°
2026-05-07 23:12 25.32476 -76.99860 24298 ft 113 kts 142°
2026-05-07 23:13 25.31802 -76.99280 24279 ft 144 kts 143°
2026-05-07 23:13 25.30976 -76.98578 24660 ft 140 kts 139°
2026-05-07 23:13 25.30510 -76.97891 25411 ft 101 kts 126°
2026-05-07 23:13 25.30066 -76.97093 25394 ft 130 kts 120°
2026-05-07 23:14 25.29627 -76.96247 25726 ft 132 kts 120°
2026-05-07 23:14 25.29114 -76.95256 25688 ft 164 kts 120°
2026-05-07 23:14 25.28490 -76.94062 25654 ft 194 kts 120°
2026-05-07 23:14 25.27769 -76.92680 25582 ft 221 kts 120°
2026-05-07 23:15 25.26760 -76.91304 25482 ft 242 kts 140°
2026-05-07 23:15 25.25357 -76.90174 25379 ft 256 kts 146°
2026-05-07 23:15 25.23861 -76.89059 25267 ft 260 kts 145°
2026-05-07 23:15 25.22419 -76.87865 25143 ft 259 kts 142°
2026-05-07 23:16 25.21062 -76.86664 24115 ft 259 kts 143°
2026-05-07 23:16 25.19622 -76.85423 24217 ft 265 kts 144°
2026-05-07 23:16 25.18148 -76.84175 24329 ft 269 kts 144°
2026-05-07 23:16 25.16661 -76.82908 24443 ft 271 kts 143°
2026-05-07 23:17 25.15164 -76.81628 24553 ft 273 kts 143°
2026-05-07 23:17 25.13659 -76.80344 24665 ft 274 kts 143°
2026-05-07 23:17 25.12148 -76.79055 24780 ft 275 kts 143°
2026-05-07 23:17 25.10631 -76.77762 24893 ft 276 kts 143°
2026-05-07 23:18 25.09106 -76.76463 24985 ft 278 kts 143°
2026-05-07 23:18 25.07564 -76.75150 24986 ft 282 kts 143°
2026-05-07 23:18 25.05997 -76.73818 24989 ft 286 kts 143°
2026-05-07 23:18 25.04413 -76.72469 24992 ft 289 kts 143°
2026-05-07 23:19 25.02816 -76.71110 24989 ft 291 kts 143°
2026-05-07 23:19 25.01216 -76.69750 24990 ft 289 kts 143°
2026-05-07 23:19 24.99625 -76.68398 24989 ft 289 kts 143°
2026-05-07 23:19 24.98059 -76.67068 24988 ft 288 kts 143°
2026-05-07 23:20 24.96474 -76.65720 24985 ft 287 kts 143°
2026-05-07 23:20 24.94894 -76.64376 24985 ft 287 kts 143°
2026-05-07 23:20 24.93315 -76.63035 24984 ft 287 kts 143°
2026-05-07 23:20 24.91728 -76.61688 24985 ft 289 kts 143°
2026-05-07 23:21 24.90135 -76.60335 24985 ft 290 kts 143°
2026-05-07 23:21 24.88536 -76.58979 24986 ft 291 kts 143°
2026-05-07 23:21 24.86933 -76.57619 24987 ft 291 kts 143°
2026-05-07 23:21 24.85332 -76.56261 24987 ft 290 kts 143°
2026-05-07 23:22 24.83737 -76.54910 24989 ft 289 kts 143°
2026-05-07 23:22 24.82145 -76.53563 24988 ft 288 kts 143°
2026-05-07 23:22 24.80560 -76.52221 24987 ft 287 kts 143°
2026-05-07 23:22 24.78979 -76.50882 24987 ft 286 kts 143°
2026-05-07 23:23 24.77396 -76.49544 24987 ft 288 kts 143°
2026-05-07 23:23 24.75800 -76.48193 24989 ft 290 kts 143°
2026-05-07 23:23 24.74194 -76.46835 24991 ft 292 kts 143°
2026-05-07 23:23 24.72589 -76.45479 24991 ft 290 kts 143°
2026-05-07 23:24 24.70992 -76.44128 24993 ft 289 kts 143°
2026-05-07 23:24 24.69403 -76.42784 24987 ft 288 kts 143°
2026-05-07 23:24 24.67819 -76.41447 24986 ft 286 kts 142°
2026-05-07 23:24 24.66241 -76.40113 24985 ft 286 kts 143°
2026-05-07 23:25 24.64658 -76.38778 24985 ft 288 kts 143°
2026-05-07 23:25 24.63068 -76.37436 24984 ft 289 kts 142°
2026-05-07 23:25 24.61474 -76.36089 24984 ft 290 kts 143°
2026-05-07 23:25 24.59874 -76.34741 24988 ft 290 kts 143°
2026-05-07 23:26 24.58272 -76.33390 24989 ft 290 kts 143°
2026-05-07 23:26 24.56676 -76.32046 24988 ft 289 kts 143°
2026-05-07 23:26 24.55085 -76.30707 24987 ft 287 kts 143°
2026-05-07 23:26 24.53501 -76.29372 24986 ft 287 kts 143°
2026-05-07 23:27 24.50341 -76.26714 24982 ft 287 kts 143°
2026-05-07 23:27 24.48755 -76.25379 24983 ft 288 kts 143°
2026-05-07 23:27 24.47161 -76.24040 24984 ft 289 kts 143°
2026-05-07 23:28 24.45565 -76.22697 24989 ft 290 kts 143°
2026-05-07 23:28 24.43965 -76.21350 24990 ft 290 kts 143°
2026-05-07 23:28 24.42361 -76.20003 24991 ft 290 kts 143°
2026-05-07 23:28 24.40771 -76.18665 24992 ft 283 kts 143°
2026-05-07 23:29 24.39243 -76.17383 24986 ft 271 kts 143°
2026-05-07 23:29 24.37762 -76.16141 24982 ft 267 kts 143°
2026-05-07 23:29 24.36279 -76.14894 24975 ft 270 kts 142°
2026-05-07 23:29 24.34779 -76.13637 24987 ft 274 kts 142°
2026-05-07 23:30 24.33258 -76.12360 24991 ft 274 kts 142°
2026-05-07 23:30 24.31770 -76.11114 24992 ft 263 kts 142°
2026-05-07 23:30 24.30352 -76.09927 24983 ft 252 kts 142°
2026-05-07 23:30 24.28969 -76.08766 24980 ft 252 kts 142°
2026-05-07 23:31 24.27548 -76.07578 24983 ft 262 kts 142°
2026-05-07 23:31 24.26083 -76.06361 24999 ft 265 kts 143°
2026-05-07 23:31 24.24608 -76.05150 25008 ft 263 kts 143°
2026-05-07 23:31 24.23154 -76.03963 24998 ft 259 kts 142°
2026-05-07 23:32 24.21761 -76.02769 24975 ft 257 kts 141°
2026-05-07 23:32 24.20360 -76.01569 24982 ft 256 kts 141°
2026-05-07 23:32 24.18941 -76.00378 24982 ft 258 kts 142°
2026-05-07 23:32 24.17513 -75.99190 24984 ft 258 kts 142°
2026-05-07 23:33 24.16082 -75.97993 24985 ft 259 kts 142°
2026-05-07 23:33 24.14622 -75.96831 24985 ft 260 kts 146°
2026-05-07 23:33 24.13099 -75.95770 24989 ft 259 kts 146°
2026-05-07 23:33 24.11623 -75.94635 24990 ft 260 kts 144°
2026-05-07 23:34 24.10169 -75.93458 24987 ft 260 kts 142°
2026-05-07 23:34 24.08719 -75.92268 24988 ft 261 kts 142°
2026-05-07 23:34 24.07259 -75.91065 24989 ft 264 kts 142°
2026-05-07 23:34 24.05793 -75.89857 24992 ft 262 kts 142°
2026-05-07 23:35 24.04346 -75.88665 24992 ft 258 kts 142°
2026-05-07 23:35 24.02918 -75.87490 24989 ft 256 kts 142°
2026-05-07 23:35 24.01495 -75.86319 24987 ft 256 kts 142°
2026-05-07 23:35 24.00067 -75.85145 24987 ft 258 kts 142°
2026-05-07 23:36 23.98633 -75.83966 25002 ft 257 kts 142°
2026-05-07 23:36 23.97292 -75.82701 25055 ft 255 kts 135°
2026-05-07 23:36 23.95886 -75.81511 25063 ft 253 kts 146°
2026-05-07 23:36 23.94332 -75.80650 25178 ft 249 kts 161°
2026-05-07 23:37 23.92718 -75.79825 24776 ft 269 kts 147°
2026-05-07 23:37 23.91265 -75.78566 24896 ft 258 kts 133°
2026-05-07 23:37 23.90144 -75.77064 24813 ft 265 kts 129°
2026-05-07 23:37 23.88724 -75.75685 24794 ft 268 kts 140°
2026-05-07 23:38 23.87295 -75.74459 24951 ft 260 kts 142°
2026-05-07 23:38 23.85828 -75.73316 24955 ft 261 kts 141°
2026-05-07 23:38 23.84414 -75.72078 25054 ft 257 kts 143°
2026-05-07 23:38 23.82959 -75.70912 25057 ft 260 kts 143°
2026-05-07 23:39 23.81498 -75.69726 24999 ft 260 kts 142°
2026-05-07 23:39 23.80086 -75.68576 24994 ft 248 kts 142°
2026-05-07 23:39 23.78702 -75.67422 24984 ft 257 kts 141°
2026-05-07 23:39 23.77254 -75.66202 24994 ft 267 kts 141°
2026-05-07 23:40 23.75796 -75.64971 24998 ft 262 kts 141°
2026-05-07 23:40 23.74381 -75.63779 24994 ft 253 kts 141°
2026-05-07 23:40 23.72999 -75.62615 24988 ft 249 kts 141°
2026-05-07 23:40 23.71610 -75.61476 24984 ft 251 kts 143°
2026-05-07 23:41 23.70195 -75.60357 24983 ft 252 kts 143°
2026-05-07 23:41 23.68765 -75.59240 24984 ft 254 kts 143°
2026-05-07 23:41 23.67314 -75.58108 24987 ft 258 kts 143°
2026-05-07 23:41 23.65845 -75.56964 24990 ft 262 kts 143°
2026-05-07 23:42 23.64375 -75.55817 24993 ft 265 kts 143°
2026-05-07 23:42 23.62870 -75.54644 24996 ft 267 kts 143°
2026-05-07 23:42 23.61372 -75.53475 24998 ft 262 kts 143°
2026-05-07 23:42 23.59927 -75.52348 24993 ft 249 kts 143°
2026-05-07 23:43 23.58528 -75.51261 24980 ft 247 kts 143°
2026-05-07 23:43 23.57106 -75.50150 24983 ft 257 kts 143°
2026-05-07 23:43 23.55679 -75.48999 25112 ft 243 kts 145°
2026-05-07 23:43 23.54269 -75.47884 25081 ft 258 kts 141°
2026-05-07 23:44 23.52861 -75.46655 25010 ft 259 kts 141°
2026-05-07 23:44 23.51437 -75.45530 24991 ft 255 kts 143°
2026-05-07 23:44 23.49966 -75.44388 25009 ft 261 kts 144°
2026-05-07 23:44 23.48473 -75.43268 24990 ft 260 kts 144°
2026-05-07 23:45 23.47010 -75.42131 24989 ft 258 kts 143°
2026-05-07 23:45 23.45549 -75.41013 25010 ft 255 kts 144°
2026-05-07 23:45 23.44077 -75.39916 25003 ft 258 kts 144°
2026-05-07 23:45 23.42367 -75.39463 24151 ft 288 kts 172°
2026-05-07 23:46 23.40443 -75.38963 24215 ft 276 kts 156°
2026-05-07 23:46 23.38921 -75.37763 24171 ft 273 kts 129°
2026-05-07 23:46 23.37802 -75.36091 24092 ft 272 kts 120°
2026-05-07 23:46 23.36857 -75.34310 24045 ft 275 kts 118°
2026-05-07 23:47 23.35466 -75.32893 24137 ft 270 kts 157°
2026-05-07 23:47 23.33839 -75.32232 24974 ft 237 kts 149°
2026-05-07 23:47 23.32468 -75.31188 24955 ft 251 kts 139°
2026-05-07 23:47 23.31037 -75.29958 24760 ft 271 kts 139°
2026-05-07 23:48 23.29688 -75.28569 24880 ft 270 kts 132°
2026-05-07 23:48 23.28284 -75.27227 25005 ft 270 kts 138°
2026-05-07 23:48 23.26842 -75.25931 25114 ft 270 kts 138°
2026-05-07 23:48 23.25424 -75.24600 25271 ft 269 kts 136°
2026-05-07 23:49 23.23839 -75.23405 25133 ft 283 kts 148°
2026-05-07 23:49 23.22260 -75.22078 25002 ft 289 kts 138°
2026-05-07 23:49 23.20578 -75.20831 24136 ft 282 kts 155°
2026-05-07 23:49 23.18600 -75.19609 23303 ft 326 kts 150°
2026-05-07 23:50 23.16703 -75.18468 24129 ft 299 kts 148°
2026-05-07 23:50 23.15069 -75.17137 23787 ft 306 kts 137°
2026-05-07 23:50 23.13476 -75.15798 24287 ft 261 kts 143°
2026-05-07 23:50 23.12084 -75.14729 24949 ft 246 kts 143°
2026-05-07 23:51 23.10685 -75.13626 24943 ft 235 kts 141°
2026-05-07 23:51 23.09318 -75.12648 24338 ft 246 kts 153°
2026-05-07 23:51 23.08138 -75.11591 24769 ft 202 kts 126°
2026-05-07 23:51 23.07587 -75.10734 24459 ft 221 kts 116°
2026-05-07 23:52 23.06850 -75.09341 24808 ft 209 kts 115°
2026-05-07 23:52 23.05962 -75.07918 24615 ft 233 kts 125°
2026-05-07 23:52 23.04834 -75.06785 24859 ft 235 kts 143°
2026-05-07 23:52 23.03307 -75.05876 24645 ft 263 kts 147°
2026-05-07 23:53 23.01783 -75.04806 24810 ft 263 kts 146°
2026-05-07 23:53 23.00215 -75.03720 24924 ft 270 kts 145°
2026-05-07 23:53 22.98627 -75.02576 24887 ft 280 kts 138°
2026-05-07 23:53 22.97230 -75.01173 24984 ft 273 kts 135°
2026-05-07 23:54 22.95795 -74.99796 24983 ft 274 kts 135°
2026-05-07 23:54 22.94247 -74.98494 24898 ft 284 kts 142°
2026-05-07 23:54 22.92646 -74.97255 24979 ft 282 kts 140°
2026-05-07 23:54 22.91333 -74.95701 24978 ft 276 kts 118°
2026-05-07 23:55 22.90660 -74.94186 24980 ft 254 kts 107°
2026-05-07 23:55 22.90074 -74.92770 24978 ft 232 kts 112°
2026-05-07 23:55 22.89240 -74.91335 24976 ft 222 kts 121°
2026-05-07 23:55 22.88307 -74.89934 24980 ft 239 kts 121°
2026-05-07 23:56 22.87335 -74.88413 24997 ft 251 kts 120°
2026-05-07 23:56 22.86270 -74.86862 24996 ft 260 kts 124°
2026-05-07 23:56 22.85139 -74.85311 24997 ft 263 kts 124°
2026-05-07 23:56 22.84025 -74.83724 24998 ft 266 kts 123°
2026-05-07 23:57 22.82931 -74.82105 24997 ft 266 kts 121°
2026-05-07 23:57 22.81870 -74.80460 24996 ft 266 kts 121°
2026-05-07 23:57 22.80861 -74.78790 24992 ft 263 kts 113°
2026-05-07 23:57 22.80088 -74.77004 24992 ft 262 kts 111°
2026-05-07 23:58 22.79132 -74.75316 24990 ft 264 kts 121°
2026-05-07 23:58 22.78086 -74.73680 24991 ft 264 kts 121°
2026-05-07 23:58 22.77060 -74.72059 24991 ft 265 kts 120°
2026-05-07 23:58 22.76028 -74.70424 24993 ft 260 kts 120°
2026-05-07 23:59 22.75134 -74.69007 24990 ft 252 kts 120°
2026-05-07 23:59 22.74166 -74.67442 24981 ft 249 kts 120°
2026-05-07 23:59 22.73184 -74.65884 24979 ft 251 kts 120°
2026-05-07 23:59 22.72192 -74.64322 24981 ft 252 kts 120°
2026-05-08 00:00 22.71197 -74.62751 24982 ft 253 kts 120°
2026-05-08 00:00 22.70200 -74.61176 24982 ft 254 kts 120°
2026-05-08 00:00 22.69200 -74.59596 24983 ft 254 kts 120°
2026-05-08 00:00 22.68201 -74.58018 24985 ft 255 kts 120°
2026-05-08 00:01 22.67196 -74.56433 24987 ft 255 kts 120°
2026-05-08 00:01 22.66192 -74.54863 24994 ft 252 kts 120°
2026-05-08 00:01 22.65200 -74.53302 24994 ft 251 kts 120°
2026-05-08 00:01 22.64214 -74.51753 25000 ft 249 kts 121°
2026-05-08 00:02 22.63223 -74.50211 24994 ft 250 kts 119°
2026-05-08 00:02 22.62256 -74.48635 24995 ft 255 kts 119°
2026-05-08 00:02 22.61236 -74.47013 24997 ft 265 kts 120°
2026-05-08 00:02 22.60185 -74.45374 24996 ft 265 kts 120°
2026-05-08 00:03 22.59153 -74.43756 24991 ft 257 kts 120°
2026-05-08 00:03 22.58155 -74.42186 24985 ft 250 kts 120°
2026-05-08 00:03 22.57174 -74.40640 24980 ft 249 kts 120°
2026-05-08 00:03 22.56257 -74.39196 24980 ft 250 kts 120°
2026-05-08 00:04 22.55267 -74.37647 24984 ft 249 kts 120°
2026-05-08 00:04 22.54301 -74.36130 24982 ft 241 kts 120°
2026-05-08 00:04 22.53361 -74.34656 24978 ft 236 kts 119°
2026-05-08 00:04 22.52433 -74.33192 24974 ft 237 kts 119°
2026-05-08 00:05 22.51495 -74.31719 24975 ft 239 kts 120°
2026-05-08 00:05 22.50551 -74.30236 24977 ft 240 kts 119°
2026-05-08 00:05 22.49616 -74.28765 24978 ft 241 kts 120°
2026-05-08 00:05 22.48665 -74.27275 24979 ft 241 kts 120°
2026-05-08 00:06 22.47716 -74.25785 24979 ft 240 kts 120°
2026-05-08 00:06 22.46771 -74.24302 24979 ft 239 kts 120°
2026-05-08 00:06 22.45830 -74.22825 24978 ft 239 kts 119°
2026-05-08 00:06 22.44888 -74.21346 24983 ft 238 kts 120°
2026-05-08 00:07 22.43948 -74.19875 24980 ft 238 kts 119°
2026-05-08 00:07 22.43011 -74.18402 24978 ft 238 kts 119°
2026-05-08 00:07 22.42076 -74.16930 24973 ft 237 kts 119°
2026-05-08 00:07 22.41178 -74.15428 24971 ft 230 kts 116°
2026-05-08 00:08 22.40412 -74.13837 24415 ft 253 kts 107°
2026-05-08 00:08 22.39891 -74.12220 25030 ft 188 kts 101°
2026-05-08 00:08 22.39523 -74.10841 24705 ft 222 kts 100°
2026-05-08 00:08 22.39004 -74.09084 23604 ft 248 kts 102°
2026-05-08 00:09 22.38253 -74.07197 20730 ft 304 kts 114°
2026-05-08 00:09 22.37107 -74.05205 20093 ft 287 kts 119°
2026-05-08 00:09 22.36051 -74.03432 19544 ft 281 kts 116°
2026-05-08 00:09 22.35101 -74.01578 18512 ft 286 kts 113°
2026-05-08 00:10 22.34283 -73.99643 16625 ft 282 kts 109°
2026-05-08 00:10 22.33472 -73.97595 14714 ft 299 kts 111°
2026-05-08 00:10 22.32638 -73.95525 12899 ft 304 kts 111°
2026-05-08 00:10 22.31925 -73.93694 13154 ft 228 kts 110°
2026-05-08 00:11 22.31400 -73.92081 10471 ft 278 kts 102°
2026-05-08 00:11 22.31041 -73.90166 9419 ft 245 kts 101°
2026-05-08 00:11 22.30796 -73.88261 7636 ft 252 kts 96°
2026-05-08 00:11 22.30870 -73.86420 5762 ft 251 kts 76°
2026-05-08 00:12 22.31813 -73.84912 4445 ft 238 kts 19°
2026-05-08 00:12 22.33176 -73.84683 4555 ft 177 kts
2026-05-08 00:12 22.33988 -73.85093 4913 ft 114 kts 313°
2026-05-08 00:12 22.34508 -73.85866 4739 ft 119 kts 307°
2026-05-08 00:13 22.34966 -73.86582 4802 ft 112 kts 306°
2026-05-08 00:13 22.35435 -73.87291 4760 ft 124 kts 307°
2026-05-08 00:13 22.35963 -73.88084 4603 ft 135 kts 307°
2026-05-08 00:13 22.36528 -73.88911 4365 ft 143 kts 308°
2026-05-08 00:14 22.37138 -73.89782 4098 ft 147 kts 308°
2026-05-08 00:14 22.37780 -73.90680 3707 ft 150 kts 309°
2026-05-08 00:14 22.38420 -73.91512 3362 ft 141 kts 312°
2026-05-08 00:14 22.39088 -73.92297 2974 ft 140 kts 319°
2026-05-08 00:15 22.39820 -73.92942 2775 ft 132 kts 323°
2026-05-08 00:15 22.40614 -73.93408 2557 ft 126 kts 346°
2026-05-08 00:15 22.41415 -73.93705 2371 ft 120 kts 345°
2026-05-08 00:15 22.42205 -73.93978 2080 ft 115 kts 347°
2026-05-08 00:16 22.42883 -73.94274 1789 ft 113 kts 328°
2026-05-08 00:16 22.43361 -73.95094 1350 ft 132 kts 303°
2026-05-08 00:16 22.44063 -73.95368 1183 ft 111 kts 35°
2026-05-08 00:16 22.44358 -73.94659 899 ft 110 kts 91°
2026-05-08 00:17 22.43945 -73.94032 828 ft 106 kts 158°
2026-05-08 00:17 22.43247 -73.94235 734 ft 111 kts 223°
2026-05-08 00:17 22.43044 -73.95025 628 ft 117 kts 281°
2026-05-08 00:17 22.43328 -73.95799 558 ft 110 kts 300°
2026-05-08 00:18 22.43651 -73.96548 413 ft 111 kts 304°
2026-05-08 00:18 22.44088 -73.97217 334 ft 109 kts 309°
2026-05-08 00:18 22.44439 -73.97942 364 ft 120 kts 298°
2026-05-08 00:18 22.44938 -73.98640 638 ft 121 kts 319°
2026-05-08 00:19 22.45515 -73.99412 736 ft 136 kts 308°
2026-05-08 00:19 22.46167 -73.99906 866 ft 99 kts 358°
2026-05-08 00:19 22.46681 -73.99471 800 ft 105 kts 78°
2026-05-08 00:19 22.46300 -73.98859 820 ft 120 kts 155°
2026-05-08 00:20 22.45492 -73.98625 618 ft 115 kts 158°
2026-05-08 00:20 22.44946 -73.98148 307 ft 92 kts 123°
2026-05-08 00:20 22.44579 -73.97627 38 ft 76 kts 125°
2026-05-08 00:20 22.44317 -73.97248 8 ft 53 kts 117°
2026-05-08 00:21 22.44270 -73.97193 9 ft 0 kts 217°
2026-05-08 00:21 22.44276 -73.97231 19 ft 48 kts 298°
2026-05-08 00:22 22.44261 -73.97439 16 ft 12 kts 153°
2026-05-08 00:22 22.44261 -73.97438 10 ft 0 kts 163°